STARLINK-1166, 45060

Orbit data source: Space-Track

STARLINK-1166, 45060 is a payload satellite owned by SpaceX/Seattle (US) in LEO that was launched on Wed, 29 Jan 2020 UTC via an FALCON 9 launch vehicle from the Air Force Eastern Test Range (AFETR). Payload-class satellites include a variety of spacecraft equipped with specific instruments for various scientific and technological missions. These include communications satellites like Starlink; space stations such as the ISS; scientific satellites like the Hubble; Earth observation satellites from companies like Planet Labs, Umbra, and HawkEye 360; GPS; miniature CubeSats for education and research; and military/defense satellites.

Loading next visibility...
Identifier
45060, 2020-006S
Orbit
LEO
Country
Flag of USUS
Related business
Manufacturer
SpaceX/Seattle
Mission
Partially operational Commercial Communications
Bus & Motor
STARLINK, Unknown motor
Mass
260 kg wet, ~248 kg dry
Launch date (UTC)
2020-01-29 (6 years ago)
Launch vehicle
FALCON 9
Launch site
Air Force Eastern Test Range (AFETR)
Object type
Payload
Rocket body
Debris
Shape & HBR
Box + 1 Pan, 10.1 m
Radar Cross Section
13.562 m², Large (>1 m²)

Expand to show TLE details & history
Last TLE update: 8 hours ago

TLE from 8 hours ago
0 STARLINK-1166
1 45060U 20006S   26133.22946296  .00056905  00000-0  82178-3 0  9992
2 45060  53.0475 322.7664 0001062 225.3754 134.7170 15.55428379346676
Epoch: 2026-05-13T05:30Z
TLE epoch observation values (Epoch: 2026-05-13T05:30:25.599Z)
Latitude
-0.00001°
Longitude
9.16725°
Altitude
402.312 km
Speed
7.67 km/s
True Right ascension
21h 31m 03s
True Declination
0° 00' 00"
Sunlit
Object was in daylight at epoch
Visualization orbit readout
Latitude
Unknown
Longitude
Unknown
Altitude
Unknown
Speed
Unknown
Apparent Right ascension
Unknown
Apparent Declination
Unknown
Sunlit
N/A
Visualization observer readout
Local Sidereal Time
21:42:15
Azimuth
Unknown
Elevation
Unknown
Doppler factor
Unknown
Orbital elements
Apogee altitude
401.905 km
Perigee altitude
400.465 km
Semi-major axis
6,779.322 km
Eccentricity
0.00011
Inclination
53.0475°
RAAN
322.7664°
Arg. of periapsis
225.3754°
True anomaly
134.72565°
Mean anomaly
134.717°
Eccentric anomaly
134.72132°
Mean motion
3.88834 °/min
Orbital period
92.58 mins
BSTAR
0.00082178
Loading maneuver chart data...
Computing Atmospheric mass density...

Documentation

Showing up to 5 results
|